GFSSGP_con_mlcape_054.txt.gz
CAPE
249 355 345 726 809 76 8 0 0 1 19 80 227 41 0 0 249 244 582 610 565 959 1496 1672 1817 1918 1824 1740 1745 1476 1576 1510 1303 1236 1366 1525 1898 1200 1303 1025 543 1290 1465 1521 1371 1542 1331 1349 1393
581 712 1058 1609 513 17 12 2 0 0 3 21 448 429 199 626 607 610 590 690 736 776 1183 1681 2039 2029 1860 1569 1505 1573 1539 1415 1182 1264 1198 1362 1721 1657 1541 1528 1089 196 894 1224 1300 1231 1493 1468 981
928 1535 1584 1827 5 14 0 0 0 0 6 64 268 509 775 937 724 641 808 775 706 807 1215 1964 2158 2155 2047 1869 1673 1541 1707 1550 1274 1570 1493 1511 1467 1546 1667 1635 1429 573 658 363 1054 1277 1112 899 851
1671 1870 1733 461 0 0 0 0 0 0 11 162 265 482 637 920 836 611 789 1066 1204 1330 1416 1637 2045 2210 2111 1959 1869 1972 1812 1670 1630 1811 1739 1701 1592 1544 1682 1584 1672 1448 987 313 900 1026 1399 1138 1292
1520 1480 0 39 4 17 3 0 0 11 33 150 360 477 902 1049 670 713 678 1574 1662 1284 1264 1748 2043 2123 2052 2051 2044 1930 1765 1804 1629 1936 1835 1661 1511 1564 1514 1680 1653 1575 1544 1272 727 1022 1457 1316 1408
1360 616 141 25 15 106 54 0 0 0 119 190 240 654 875 821 763 853 683 1242 1670 1553 1336 1532 2054 2058 1981 2007 2078 2033 1906 1887 1955 1922 1956 1686 1572 1474 1431 1619 1528 1476 1431 1583 1065 841 1063 1249 1521
727 2 27 1 13 8 37 15 0 0 77 85 318 669 767 1061 850 910 870 1290 1337 1562 1669 1747 1781 2041 2018 1926 1976 2017 1959 1893 1853 2010 2032 2014 1914 1599 1586 1567 1425 1178 1050 991 1124 675 952 958 1240
76 49 6 1 0 17 0 0 0 33 199 108 535 689 807 932 1001 949 900 1468 1119 1550 1575 1661 1935 1878 1845 1863 2016 1949 1934 2020 1721 1594 1882 1832 1948 1621 1488 1204 1149 1024 1028 878 800 984 1201 331 1145
19 0 19 1 19 0 0 10 56 55 23 120 380 597 986 967 965 968 1209 892 1268 1395 1765 1798 2084 2100 1906 1871 1948 1843 1872 1529 2197 1812 1738 1669 1335 1418 1632 1432 1249 955 928 882 730 947 1007 1026 784
1 0 25 17 115 82 50 178 123 362 230 282 610 966 924 1115 1100 1084 1115 1049 1121 1465 1893 1797 2042 2126 1995 1524 2047 1579 1597 1505 1359 1283 1786 1284 1122 1073 1435 1481 1090 1088 929 1141 933 752 1079 1104 664
0 0 0 6 22 80 64 186 315 173 212 325 712 986 1127 1225 1217 1173 1150 1195 1120 1213 1882 1946 2074 2116 1691 1351 1311 1467 1530 1380 1409 1044 1160 1568 1190 702 801 1083 1037 896 852 1009 960 921 917 689 741
50 24 45 0 0 134 110 28 253 156 339 293 737 1029 1184 1252 1352 1302 1176 1270 1281 1237 1276 1525 1885 1856 1477 756 1281 1141 1217 544 849 799 1198 984 973 771 724 888 867 651 748 496 133 0 55 738 792
28 69 0 0 0 47 221 329 208 340 593 682 810 914 1070 1210 1345 1349 1244 1240 1265 1376 1724 1694 1878 1816 1574 1545 1113 614 1254 1302 1070 587 215 1070 949 1146 844 506 442 526 579 718 230 2 20 805 1137
48 53 0 0 0 0 75 64 137 498 690 823 865 864 969 1097 1211 1252 1297 1360 1402 1628 1841 2247 2114 2346 2113 2062 1667 1421 963 1113 1028 760 820 732 910 961 584 315 148 135 317 304 521 748 790 1120 1282
14 0 0 0 0 0 39 7 31 188 254 829 947 978 989 1087 1062 1274 1410 1635 1513 1677 1864 2551 2430 2377 2231 2180 1642 1832 709 706 950 253 442 608 605 566 208 255 136 99 211 2 63 10 744 882 1004
16 4 0 0 3 0 16 2 0 38 107 776 954 1091 1067 1174 1169 1290 1562 1863 1899 1939 2101 2573 2522 2292 2071 2032 1798 1459 470 478 138 63 9 34 317 172 227 91 38 119 97 154 256 495 792 785 719
7 14 0 0 6 8 5 31 57 45 119 824 999 1130 1242 1292 1439 1570 1670 1961 2256 2417 2435 2719 2849 2223 2126 1950 1660 899 263 173 97 1 5 0 102 138 121 36 101 13 0 107 125 760 333 306 445
23 0 1 2 26 0 0 16 120 57 7 899 1169 1221 1315 1496 1671 1842 1915 2061 2493 2706 3140 3062 3051 2293 1872 1944 1817 1079 366 130 165 73 59 15 130 168 141 15 70 145 90 174 283 476 329 420 462
0 0 0 0 15 0 0 0 60 21 126 392 1255 1281 1307 1567 1887 2000 2073 2279 2641 3005 3202 3432 3242 2565 2116 2210 1988 1320 412 10 14 13 149 117 395 352 346 73 250 395 475 439 403 359 308 339 534
0 0 33 87 46 0 0 41 1 130 117 108 483 413 1335 1557 2114 2216 2382 2468 2782 3245 3539 3760 3285 2662 2356 2219 1815 1383 583 100 39 316 125 248 715 696 521 342 305 194 503 570 441 462 123 117 287
28 2 27 51 6 0 0 5 18 0 24 73 7 772 1709 1646 2266 2532 2703 2813 2848 3467 3825 3898 3367 2847 2487 1882 1521 990 582 500 463 494 1145 1372 1424 1046 652 490 565 496 410 82 218 294 354 342 254
9 0 0 1 3 0 0 0 53 5 1 74 64 100 1060 1781 2539 2864 3036 3219 3088 3343 3911 4116 3632 2820 2837 1657 1278 1119 391 604 628 773 1394 1174 1327 1163 878 603 444 352 304 286 323 412 185 119 31
0 0 0 0 0 0 1 1 94 8 28 38 305 634 682 2005 2637 2932 3023 3319 3232 3278 3826 4224 3600 2778 2764 1028 1229 1026 937 614 1322 1246 1239 747 665 900 441 519 427 270 248 330 559 770 608 480 550
0 0 0 0 0 0 1 19 149 2 4 262 567 731 792 1819 2185 3179 3188 3344 3428 3463 3713 4105 3340 2750 2267 1631 1503 1217 1228 1391 1225 1233 997 600 566 610 497 648 326 319 113 228 369 292 454 587 602
0 0 0 0 0 0 12 1 94 104 253 233 548 901 1037 1738 2069 3096 3428 3665 3723 3718 3595 3807 3076 2642 2201 1642 1481 1578 1946 1822 1684 1329 918 393 337 482 417 283 126 52 23 17 83 172 328 450 449
0 0 0 25 62 11 17 4 11 257 253 338 198 443 1154 1679 2106 2725 3576 3907 3956 3745 3536 3399 3067 2393 2127 1573 1437 1816 2170 1559 1162 964 762 578 364 303 174 87 113 15 3 1 1 35 77 112 169
0 0 0 0 0 4 33 1 131 69 157 335 746 971 1442 1424 2075 2371 3549 3942 3998 3695 3499 3378 3117 2520 2346 1494 1616 1648 1565 648 462 503 465 338 407 335 172 112 109 36 2 1 1 1 11 54 32
0 0 5 0 5 49 109 271 42 3 214 960 1237 1888 2067 2005 2279 2851 3600 3803 3788 3598 3640 3305 3007 2370 1956 1496 1317 771 414 216 146 590 403 407 323 167 136 89 81 5 32 1 2 6 107 183 208
0 0 103 66 53 105 51 67 17 72 486 1022 1723 2162 2400 2223 2471 2909 3405 3704 3616 3578 3357 3060 2636 2142 1623 1031 729 165 98 98 348 370 336 312 294 165 112 93 32 6 6 2 2 1 15 10 83
0 0 4 16 106 54 72 133 60 38 1262 1508 1561 1992 2161 2056 2362 2909 3039 3652 3622 3325 3020 2774 2294 1938 1536 835 199 21 0 65 315 235 263 222 153 113 119 104 52 4 5 3 0 0 2 1 1

GFSSGP_con_mlcape_057.txt.gz
CAPE
665 816 478 575 701 525 0 0 0 61 197 243 53 0 0 75 243 29 828 1022 1196 1374 1838 1987 2071 2101 1842 1729 1725 1577 1331 1347 1411 1516 1132 1480 1078 1263 679 841 1430 1450 1584 1517 1446 1306 1184 1384 1025
606 503 469 874 442 0 0 0 0 129 490 477 388 297 400 330 500 569 568 1041 1048 1383 1606 1894 1920 1917 1934 1687 1708 1629 1420 1286 1322 1382 1335 1208 1568 1437 1431 950 270 830 1149 1363 1399 1488 1288 1059 886
459 572 1295 1341 56 0 0 0 8 145 278 595 629 656 624 492 555 626 757 889 950 1396 1686 1955 1889 1754 1605 1625 1698 1624 1520 1201 1150 1241 1364 1461 1449 1473 1574 1208 582 403 329 966 1300 1331 931 706 1154
1196 1086 1817 566 1 0 0 0 7 101 188 353 440 638 581 506 679 685 749 725 1249 1601 1711 1962 1891 1947 1840 1734 1706 1604 1568 1426 1391 1397 1450 1567 1540 1653 1656 1458 1334 1329 647 598 999 1349 894 1081 1125
0 35 78 1 22 0 0 1 22 123 359 468 782 674 789 578 892 1068 1052 1240 1260 1190 1885 1932 2057 2007 1971 1909 1939 1869 1538 1454 1647 1723 1738 1741 1611 1702 1691 1774 1487 1434 1316 798 895 840 1259 1258 1214
1 0 1 3 74 2 0 0 74 231 467 613 815 773 661 646 742 1326 1298 1172 941 701 1518 1783 1869 1958 2031 1987 1845 1811 1789 1669 1822 1772 1660 1621 1479 1529 1576 1715 1679 1510 1249 1411 504 778 1186 1289 1381
56 2 60 8 15 0 0 0 52 137 314 545 756 722 696 814 818 1445 1707 1337 1140 1221 1171 1379 1682 1901 1970 1914 1811 1821 1876 1916 1920 1963 1883 1769 1567 1495 1432 1507 1269 1201 1048 1176 1344 675 868 1195 1330
128 24 3 1 2 0 0 8 96 95 239 662 670 829 825 850 898 1188 1317 1425 1400 1447 1036 1055 1348 1407 1592 1845 1879 1891 1917 1745 1785 1974 2035 1973 1933 1674 1668 1677 1341 943 1042 877 922 1019 1153 771 1146
4 2 0 9 0 0 0 80 54 114 500 597 615 920 931 900 875 1184 1182 1571 1599 1646 1490 1578 1510 1467 1581 1554 1656 1539 1574 1852 1749 1562 1766 1727 1652 1368 1145 1128 1115 960 820 870 895 1039 1103 989 219
1 0 8 7 0 3 20 50 99 204 478 900 974 893 924 979 956 1137 1026 1172 1205 1448 1642 1832 1517 1496 1800 1964 1754 1307 1441 1044 1727 1553 1317 1321 986 1100 994 1140 1089 1320 1131 1188 971 773 911 1089 446
0 0 0 0 2 40 108 70 24 181 377 708 852 961 1096 1000 1064 1133 911 1049 1469 1639 1760 1855 1807 1783 1563 1751 1752 1342 1588 1262 1063 1237 1484 1297 1097 891 740 1042 688 850 1084 801 1030 956 861 821 692
0 7 21 39 71 177 10 4 0 117 340 703 894 1131 1172 1144 1141 1086 1153 1042 994 1822 1785 1859 2016 1991 1302 226 0 897 1242 1159 806 1086 1113 872 721 650 651 739 412 619 578 622 236 126 97 285 526
0 31 112 87 64 128 116 16 44 254 484 834 1068 1234 1260 1266 1239 1138 1277 1174 1118 1614 1750 1860 1874 1961 1278 1018 908 432 142 536 75 301 369 161 364 354 488 447 491 297 39 381 196 21 0 0 109
23 39 45 0 5 125 78 68 236 219 460 778 1064 1203 1249 1326 1393 1274 1310 1167 1257 1457 1611 1704 1896 1969 1862 1596 1007 684 434 808 584 472 125 1 450 545 388 258 96 8 203 66 57 0 1 42 68
0 22 12 0 8 80 46 35 0 34 238 545 837 970 1104 1234 1313 1282 1293 1250 1407 1494 1723 1745 2001 2060 1901 1872 1723 1235 851 741 343 192 176 395 381 267 160 162 163 50 164 7 0 1 0 2 65
0 0 0 7 7 28 37 0 5 0 46 347 352 888 998 1087 1229 1207 1438 1363 1677 1747 2128 2245 2257 2154 2007 1942 1749 1298 399 279 156 25 16 43 333 150 149 132 56 67 112 22 32 13 0 0 98
0 0 0 1 4 12 1 4 41 9 60 321 426 632 1012 1055 1193 1414 1687 1692 1808 1854 2268 2466 2425 2100 1887 1810 1484 1049 424 160 78 0 3 0 49 93 101 73 65 89 0 0 8 125 138 236 264
3 0 0 0 2 18 9 24 55 31 132 68 468 539 1154 1277 1324 1542 1715 1917 2102 2154 2510 2466 2389 2157 1929 1675 1582 1035 277 144 169 72 10 20 1 45 88 81 46 72 76 8 0 58 167 97 2
9 0 0 0 17 31 4 0 76 43 132 41 219 1036 1324 1461 1652 1629 1795 2178 2356 2559 2669 2573 2603 2274 1739 1561 1734 1210 219 39 55 2 59 14 78 70 71 239 170 272 241 355 354 146 0 61 131
6 2 0 4 1 13 10 0 0 84 262 296 387 611 55 819 1800 1808 1937 2339 2561 2929 2898 2952 2847 2441 1974 1739 1808 1180 326 34 30 30 77 83 38 506 444 419 335 346 386 218 215 105 41 31 116
0 4 0 21 20 2 2 0 57 19 16 436 391 639 345 966 1772 1897 2090 2450 2808 3012 3227 3176 2827 2479 2243 2179 1412 794 415 126 161 386 598 1101 1333 1080 642 428 388 394 352 274 293 219 167 155 129
0 0 0 4 15 0 2 0 14 2 0 199 1226 806 745 1008 1891 2098 2364 2507 2985 3223 3563 3372 2933 2656 2270 1789 1066 446 146 243 463 719 1015 977 1114 791 808 374 228 149 141 117 168 186 60 73 67
0 0 0 0 0 0 0 0 0 10 1 0 0 1 1182 1486 2173 2385 2652 2726 2989 3551 3799 3403 3102 2725 2380 2023 1272 1145 490 631 931 863 882 489 464 612 283 219 139 69 23 58 141 144 144 170 131
0 0 0 0 0 0 0 0 0 0 0 0 34 111 1817 2230 2544 2808 3014 3041 3051 3882 3908 3391 3020 2456 2532 1181 1487 829 736 1183 1200 951 632 525 530 441 387 180 65 0 0 1 0 88 195 227 201
0 0 0 0 0 0 0 3 51 5 4 121 481 1363 2097 2650 2818 3201 3342 3313 3350 3791 3856 3259 2897 2479 2093 1503 1096 1169 1666 1353 739 639 648 412 506 341 139 100 31 0 0 3 2 0 0 37 123
0 0 0 0 0 0 0 0 0 156 347 359 740 814 1766 2538 852 0 2193 3575 3574 3658 3643 3261 2542 2346 1768 1429 1324 1121 1558 1026 700 497 379 356 272 160 106 102 30 1 0 1 1 0 3 3 0
0 0 0 0 0 0 0 1 4 21 222 351 160 1029 1738 2802 1142 810 3135 3750 3640 3522 3531 3139 2377 2070 1748 1523 1363 1175 691 318 126 107 312 309 311 120 78 73 39 4 2 0 1 12 51 62 72
0 0 0 0 0 0 28 4 8 76 514 948 1508 1550 1763 2252 3122 3626 3920 3872 3556 3426 3315 3007 2471 2119 1781 1216 1018 588 153 180 18 0 265 239 134 105 57 12 6 4 3 1 0 2 10 1 0
0 0 0 2 51 0 21 0 5 118 107 12 850 1195 1874 2363 3264 3621 3891 3713 3532 3423 3223 2776 2383 1770 1373 835 485 254 108 34 101 153 294 170 149 82 27 0 2 3 0 0 0 1 0 0 0
0 0 0 0 16 86 21 0 31 212 6 0 527 62 2157 2042 2330 3210 3628 3485 3363 3167 2973 2517 1930 1404 945 551 267 17 6 142 259 260 180 117 88 90 26 15 0 0 0 0 0 0 0 0 0

GFSSGP_con_mlcape_063.txt.gz
CAPE
794 757 480 262 171 50 0 126 179 193 228 113 297 204 188 420 90 60 888 1271 1138 1427 1948 2037 2114 2378 2333 1830 1587 1629 1696 1853 1750 1782 1850 1906 1946 1989 1967 1855 1721 1483 1785 1602 1388 1390 1268 937 697
855 677 428 534 21 0 24 170 87 91 18 56 232 334 314 411 817 938 1136 1451 1333 1507 1837 1971 2074 2248 2233 2019 1792 1780 1756 1834 1867 1856 1477 1789 1254 1409 2014 1978 1702 1788 1809 1547 1264 1557 1347 1004 548
817 451 695 440 39 0 0 265 300 378 249 330 477 535 597 547 933 1035 1292 1488 1496 1528 1832 1916 2153 2172 2091 2029 1927 2001 1861 1767 1702 1943 1832 1724 1835 1713 1082 1414 1672 1534 1659 1817 1411 1665 1098 1077 795
749 610 933 19 0 0 99 356 529 600 559 493 398 354 632 784 808 1079 1413 1323 1361 1575 1821 2325 2089 2012 2018 2024 2020 2009 1939 1591 1704 1820 1853 1688 1829 2017 1826 1299 1054 1133 1612 1627 1480 973 745 1346 940
14 154 0 0 0 63 253 448 423 476 598 594 583 597 734 766 941 1038 939 1122 1125 1470 1949 2000 2018 2052 2096 2006 2015 2008 1797 1838 1776 1849 1840 1808 1868 1950 1687 1852 1687 1350 1060 1401 1250 1055 1156 1123 813
1 0 0 0 0 5 234 421 480 474 625 555 591 614 799 877 659 784 1069 1099 1388 1657 1935 1935 2017 1884 1966 1980 2032 2061 1956 1990 2065 2048 2056 1836 1700 1270 1594 1683 1636 1791 1467 1124 1147 1383 1333 1160 792
108 0 0 0 0 64 182 401 406 471 536 579 556 561 774 809 755 754 1216 1377 1461 1763 1760 2054 2005 1967 2062 2127 2059 1982 1979 2137 2185 2165 2062 2000 1638 1636 1484 1593 1410 1706 1676 1228 848 936 1363 1181 1186
132 0 0 0 0 0 184 281 596 540 730 663 623 243 697 800 954 1232 1380 1349 1401 1460 1564 1598 1744 1868 1878 2001 2097 1926 1891 1908 2078 1997 1970 1751 1761 1646 1615 1370 1201 1292 1211 1764 1529 982 985 1078 1038
5 1 0 0 0 38 238 317 673 708 451 707 753 528 844 1081 1090 1105 1261 1021 977 1119 1332 1504 1442 1704 1576 1427 1623 1764 1810 1979 2065 2078 2068 2003 1710 1638 1609 1569 1189 1326 1280 1115 1230 1341 1064 783 954
4 0 0 0 0 16 57 139 395 525 578 801 728 880 1106 1176 1058 1051 943 658 564 605 817 1098 1135 1188 1368 1513 1437 1548 1551 1678 1666 1731 1971 2008 1617 1382 1221 1356 1252 1218 1458 1317 1129 1166 1015 894 489
0 0 1 12 4 24 11 38 388 382 453 456 410 992 1351 1313 1083 1151 1155 974 799 752 715 937 1013 1095 1042 1171 1321 1455 1250 1420 1501 1524 1316 1603 1248 1044 1242 1073 1035 999 1588 1223 1189 853 757 731 640
0 0 1 0 41 17 21 64 186 482 335 660 716 1129 1380 1392 1311 1370 1285 1282 1324 1136 960 1074 1165 1120 1156 1356 1414 1497 1047 1090 828 1177 1328 1092 1042 750 730 891 870 672 937 629 485 358 163 76 55
0 0 0 0 2 19 51 70 89 274 643 918 929 1018 1204 1275 1357 1396 1432 1420 1448 1466 1480 1457 1511 1379 1403 1419 1571 1420 1184 930 654 502 548 655 522 486 391 478 459 397 475 468 148 71 65 0 0
0 0 0 0 1 20 43 45 184 424 707 906 937 921 971 1053 1232 1247 1277 1443 1468 1540 1612 1592 1618 1558 1565 1399 1149 750 684 276 192 185 148 245 193 333 285 280 296 240 268 265 126 50 22 0 0
0 0 0 0 0 18 28 49 176 489 606 796 835 926 1004 1020 1117 1181 1116 1208 1389 1514 1618 1676 1743 1774 1633 1252 818 453 271 367 119 145 111 129 82 112 206 135 141 95 78 31 10 1 0 0 0
0 0 0 25 9 16 40 38 143 630 697 743 857 965 1036 1073 1129 1114 1106 1136 1289 1501 1671 1747 1853 1896 1597 1191 1096 830 509 290 191 121 84 66 40 238 232 114 53 49 40 16 0 0 0 0 0
0 0 0 0 24 6 5 11 34 525 825 860 1011 1092 1166 1234 1235 1234 1162 1251 1323 1393 1662 1711 1825 1919 1760 1540 1038 731 171 155 131 99 49 25 195 194 124 77 19 12 24 31 10 0 0 0 58
0 0 0 0 0 0 18 7 0 324 823 870 992 1120 1185 1290 1373 1401 1316 1274 1320 1391 1639 1734 1933 1913 1679 1197 870 358 135 156 51 8 5 2 8 86 113 58 12 18 1 0 2 16 11 19 56
0 0 0 0 0 0 0 0 0 200 451 761 815 976 1043 1125 1347 1359 1395 1293 1379 1527 1580 1762 1900 1942 1636 1451 1293 755 2 81 59 30 28 14 16 15 72 42 38 58 81 119 93 36 47 43 14
0 0 0 0 0 0 0 0 0 0 11 119 550 735 981 948 1101 1282 1432 1446 1540 1611 1764 1837 1975 1776 1695 1639 1435 984 12 0 0 0 10 71 45 75 68 40 72 148 152 140 117 68 52 0 0
0 0 0 0 0 0 0 0 0 1 8 32 177 344 772 855 547 1197 1422 1585 1783 1895 1903 1987 1990 1805 1699 1507 1307 755 170 0 2 103 273 378 172 101 306 265 206 166 130 96 86 64 36 17 0
0 0 0 0 0 0 0 0 0 0 2 21 60 227 635 721 323 1011 1348 1606 1885 1981 2068 2041 1885 1764 1612 1487 1171 1036 400 0 27 296 547 845 603 476 428 279 159 104 45 32 41 57 20 0 0
0 0 0 0 0 0 0 0 0 0 0 5 19 124 417 673 766 1074 1274 1558 2060 2103 1932 1722 732 1204 1613 1428 1215 524 103 156 529 580 794 652 428 337 234 135 52 20 6 3 18 25 1 1 0
0 0 0 0 0 0 0 0 0 0 0 2 16 101 246 491 532 1179 1349 1698 2212 2390 1985 1632 545 1314 1625 1398 941 493 41 579 703 682 473 418 365 235 130 24 0 0 0 0 0 35 32 21 8
0 0 0 0 0 0 0 0 0 0 0 0 51 103 156 237 431 889 1585 1873 2456 2650 2485 2105 379 1411 1657 1306 1052 853 664 845 616 444 249 233 175 175 75 17 0 0 0 1 0 0 0 0 0
0 0 0 0 0 0 0 0 0 21 204 71 0 0 241 472 830 1138 709 2560 2787 2802 2743 2436 1828 1709 1487 1019 966 896 706 839 345 239 157 149 139 99 84 0 0 0 0 0 1 5 4 0 0
0 0 0 0 0 0 0 0 0 279 574 764 462 164 532 778 985 1196 777 335 3145 2976 2823 2534 2185 1741 1329 930 731 637 530 101 77 53 60 123 126 97 74 0 1 0 3 0 10 0 0 0 0
0 0 0 0 0 0 0 0 0 324 543 1044 890 646 709 700 253 24 2 385 380 2711 2829 2466 2126 1613 1272 993 874 517 3 0 0 4 48 92 81 54 29 1 0 0 0 1 1 0 0 0 0
0 0 0 0 0 0 0 0 0 318 566 882 1156 743 468 50 0 19 149 196 162 1308 2497 2263 1959 1424 1219 989 763 249 0 0 0 8 48 50 26 9 0 0 0 0 0 0 0 0 0 0 0
0 0 0 0 0 0 0 0 35 273 392 1191 1471 595 25 30 59 64 140 38 214 1382 2355 2225 1733 1389 1011 678 335 71 0 1 88 33 37 19 0 0 0 0 0 0 0 0 0 0 0 0 0

GFSSGP_con_mlcape_066.txt.gz
CAPE
758 895 481 176 31 0 0 7 97 217 236 93 197 157 161 443 56 38 959 1205 1291 1461 1875 2106 2283 2298 1861 1829 1966 1977 1757 2030 2082 1990 2024 1955 1980 1685 1712 1499 1576 1820 1368 1469 1486 1310 1178 1069 519
692 429 236 383 1 0 0 39 0 12 52 193 229 332 346 440 858 872 1039 1372 1347 1525 1929 2025 2320 2342 2112 1977 2026 1975 1879 1888 1923 1936 1942 1990 1958 1905 1727 1484 1535 1601 1720 1693 1374 1412 1038 644 658
441 433 470 297 0 0 0 147 137 114 234 378 357 463 491 463 867 922 1190 1425 1410 1577 1859 1896 2302 2408 2358 2144 2105 2024 1934 2011 1914 1599 1880 1502 1443 1649 1666 1314 1245 1553 1439 1312 1670 1400 1060 652 1113
663 585 591 1 0 0 74 251 335 411 446 273 366 402 581 803 811 1016 1498 1383 1305 1516 1785 2161 2344 2463 2457 2298 2031 1761 2046 1649 1959 1968 1848 1952 1952 1435 1121 1178 1477 1464 1415 1701 1317 1181 1138 832 935
161 138 0 0 0 68 263 433 542 416 366 404 431 466 651 859 973 1276 1378 1254 1174 1460 1804 2372 2352 2356 2430 2358 2145 1925 1847 1962 1988 2024 1975 1837 2040 2013 1868 1579 1343 1250 1404 1454 1135 860 1157 1274 739
1 0 0 0 0 147 374 465 513 398 508 505 346 588 734 1019 689 871 1112 1154 1408 1539 1983 2161 2327 2318 2330 2338 2260 2098 1917 1845 1985 2058 2024 1911 2082 1961 1832 1920 1883 1520 1132 1154 1370 1050 1237 1208 581
100 0 0 0 0 99 185 418 331 305 332 387 539 382 744 910 744 948 1046 1245 1496 1725 1831 2021 2154 2167 2309 2239 2323 2127 2028 2086 2087 2099 2084 2083 1922 1568 1661 1768 1805 1839 1732 1098 858 1129 1485 1316 877
89 0 0 0 0 1 191 401 393 359 413 571 554 181 643 797 755 1097 1001 1177 1430 1659 1680 1701 1932 2024 2045 2075 2328 2261 2126 2148 2154 2219 2112 1896 1724 1734 1763 1615 1453 1739 1583 1323 953 471 1023 1434 1538
2 0 0 0 0 6 234 350 493 620 434 545 590 636 718 818 968 843 955 1028 1064 1307 1448 1554 1564 1735 1804 1871 2136 2223 2165 2098 2030 1982 1825 1819 1615 1595 1589 1465 1089 1328 1288 1309 1601 948 481 973 1033
28 0 0 0 0 59 169 284 542 580 361 637 701 783 906 996 997 750 1119 730 621 622 872 1260 1288 1272 1569 1681 1731 2012 1937 1890 1924 1910 1896 1799 1585 1447 1400 1533 1350 1397 1355 1256 1235 1245 950 834 571
13 0 0 4 0 24 138 152 374 411 153 522 313 653 1001 1014 1005 1072 1117 751 520 483 664 857 979 1036 1145 1047 1243 1498 1584 1405 1564 1557 1654 1844 1662 1421 1439 1216 1316 1196 1629 1232 1204 989 864 526 680
0 0 0 0 3 0 2 25 206 366 279 500 526 747 1055 1037 1039 1059 1100 868 545 480 471 621 783 804 890 1018 965 1043 648 411 382 536 686 1113 1356 896 820 930 928 945 1012 976 785 551 294 236 229
0 0 0 0 0 8 0 17 32 243 433 599 803 1010 1038 1072 1040 1081 1159 1126 906 855 754 597 789 810 799 823 1012 1153 971 367 311 314 265 385 357 455 428 481 714 638 607 672 226 259 229 128 26
0 0 0 0 0 9 36 45 64 114 514 549 736 823 999 1066 1041 1183 1340 1332 1269 1274 1233 986 1086 1073 976 1041 1071 1154 771 543 266 162 124 216 192 195 229 219 261 335 353 459 275 134 103 38 0
0 0 1 2 0 2 40 55 72 254 558 599 653 713 866 1043 1199 1205 1311 1357 1328 1350 1482 1476 1463 1460 1309 1235 1159 988 362 119 109 89 102 100 106 149 183 213 270 197 232 231 183 81 63 29 0
0 0 0 29 0 2 47 31 46 353 548 653 684 624 694 923 1081 1209 1170 1223 1348 1402 1457 1568 1691 1584 1466 1288 1103 675 634 358 185 166 80 72 52 44 142 127 165 132 80 60 23 1 0 0 0
0 0 0 1 41 16 7 33 14 380 490 586 705 639 764 835 958 1038 1087 1116 1209 1329 1403 1471 1714 1712 1493 1233 872 741 177 52 91 130 85 67 51 95 125 159 103 62 33 26 16 20 15 0 4
0 0 0 0 9 15 16 0 8 292 526 514 709 682 847 941 993 1027 1012 1048 1058 1187 1336 1456 1663 1706 1310 1139 742 278 38 38 5 33 62 35 47 173 141 93 66 10 19 21 5 14 15 18 16
0 0 0 0 0 1 0 0 13 71 508 647 734 770 873 980 1056 1093 1088 1077 1052 1104 1238 1393 1560 1593 1252 1098 661 123 24 39 19 0 15 16 3 10 107 82 51 20 14 59 48 65 58 38 37
0 0 0 0 0 0 0 0 0 10 121 508 688 748 829 916 1003 1151 1161 1168 1153 1165 1144 1330 1342 1273 1162 1039 907 686 14 26 7 0 0 41 33 12 15 28 30 25 98 134 119 84 64 42 3
0 0 0 0 0 0 0 0 0 0 6 240 528 631 731 832 920 1034 1160 1226 1262 1243 1255 1371 1323 1285 1242 1093 848 418 26 18 6 7 43 49 63 52 74 79 74 142 139 139 103 109 91 65 27
0 0 0 0 0 0 0 0 0 0 0 1 7 50 307 670 761 904 1048 1260 1328 1364 1607 765 201 79 672 927 916 627 356 12 11 122 315 574 289 224 291 230 185 106 81 66 54 64 48 9 2
0 0 0 0 0 0 0 0 0 0 0 0 0 25 125 324 538 711 889 1206 1358 1733 1180 188 1 0 4 645 819 662 382 11 40 311 560 537 316 340 228 136 53 4 0 11 31 40 6 0 0
0 0 0 0 0 0 0 0 0 0 0 0 0 10 86 398 456 600 792 1289 1578 2117 609 11 70 0 0 33 665 504 107 40 460 498 344 269 278 199 146 56 0 0 0 0 8 36 22 0 0
0 0 0 0 0 0 0 0 0 0 0 10 25 0 49 233 419 825 1148 1680 2091 2375 1469 121 76 0 1 404 637 354 17 374 565 444 183 191 169 178 79 13 0 0 0 1 0 0 0 0 0
0 0 0 0 0 0 0 0 0 0 329 356 62 11 94 253 377 661 1206 1091 925 1808 2355 1587 702 298 682 1024 827 704 605 623 482 187 101 141 189 168 70 3 0 0 0 0 3 0 1 0 0
0 0 0 0 0 0 0 0 0 20 269 530 267 263 344 419 513 673 820 39 22 507 2060 1976 897 1031 1238 919 795 659 546 489 179 58 67 75 115 115 61 5 0 0 1 4 4 3 1 0 0
0 0 0 0 0 0 0 0 0 0 108 794 501 555 808 834 774 910 487 141 76 472 1303 1882 1690 1317 967 690 561 384 122 12 37 30 27 79 90 118 34 3 0 0 0 0 0 0 0 0 0
0 0 0 0 0 0 0 0 0 0 256 907 750 766 555 116 51 101 9 54 301 468 1112 1260 1635 1303 929 682 401 78 0 1 35 24 49 72 68 41 2 0 0 0 0 0 0 0 0 0 0
0 0 0 0 0 0 0 0 0 10 203 615 882 679 555 289 52 31 53 204 146 348 1 118 1019 1181 931 632 366 0 0 0 0 3 14 8 0 0 0 0 0 0 0 0 0 0 0 0 0

GFSSGP_con_mlcape_069.txt.gz
CAPE
733 897 551 229 58 4 0 0 135 199 237 159 260 220 312 494 122 218 1089 1306 1341 1428 1606 1803 1799 1775 1867 1946 2109 2099 1948 1778 1785 1770 1752 1718 1729 1907 1640 1591 1483 1632 1311 1527 1452 1262 1255 789 254
614 473 279 521 1 0 3 39 17 59 169 269 311 391 431 599 1006 1038 1122 1572 1426 1594 1717 1951 1867 1824 1815 1979 2020 1923 2237 2183 2191 2159 2066 2086 1867 1661 1806 1509 1759 1581 1588 1732 1463 1159 1016 522 287
410 452 689 107 0 0 0 119 89 147 284 377 361 496 545 360 972 929 1475 1580 1690 1793 1800 2132 1927 1951 1904 1906 1937 1888 1972 2107 2094 2053 2068 2042 2060 1762 1703 1248 1401 1494 1640 1523 1581 1295 664 810 707
508 713 537 1 0 0 84 191 230 385 357 260 293 204 581 911 900 1243 1691 1531 1695 1760 1755 2155 2171 2404 1999 2052 2010 2012 2017 1975 1873 2000 1762 1571 1561 1873 1567 1602 1232 1275 1554 1366 1370 1020 864 1032 897
480 247 0 0 5 123 219 354 538 308 304 453 373 263 593 1099 1183 1608 1698 1471 1547 1767 1819 2129 2301 2289 2288 2145 2061 2089 1921 1827 1949 1937 1969 2025 1869 1601 1353 1322 1394 1322 1474 1402 1463 901 1033 836 792
45 0 0 0 11 167 406 535 558 455 446 487 381 562 735 1373 1308 1498 1443 1446 1435 1667 1835 2177 2262 2345 2392 2209 1777 1791 1855 1818 1610 2144 1965 1938 2123 2061 1770 1803 1493 1166 1195 1310 925 883 1476 864 595
168 0 0 0 0 94 222 485 484 293 344 381 584 606 851 999 1190 1371 1363 1549 1682 1767 1979 2246 2291 2396 2533 2395 2152 1927 2010 2097 2143 2167 2124 1850 2067 1868 1605 1786 1934 1681 1177 1092 1329 1106 1255 918 564
171 0 0 0 0 3 211 458 392 269 286 587 678 272 685 881 1036 1236 1352 1600 1724 1831 1928 2053 2268 2213 2209 2200 2374 2248 2079 2169 2237 2219 2147 2146 1987 1714 1678 1846 1690 1792 1800 1222 1073 1190 1435 1144 867
2 0 0 0 0 0 213 341 440 500 520 465 591 742 899 961 1022 1023 1118 1345 1496 1779 1861 1982 2026 2201 2359 2313 2196 2209 2164 2056 1773 2021 1882 1707 1450 1432 1516 1391 1251 1589 1377 1349 1125 708 1022 1453 1422
9 0 0 0 0 1 177 373 348 515 444 626 720 866 940 1062 815 778 919 924 960 1191 1578 1773 1870 1881 2137 1840 2239 2274 2091 1869 1686 1571 1726 1584 1481 1671 1386 1540 1271 1349 1248 1211 1371 1191 625 948 617
0 0 0 0 0 29 129 223 547 431 84 294 277 640 1063 1156 831 839 1320 1042 922 1100 1243 1599 1777 1867 1759 1696 2056 1936 1840 1287 1137 1289 1525 1586 1630 1716 1572 1468 1399 1257 1446 879 855 844 754 897 838
0 0 0 0 0 54 108 181 319 407 140 313 538 655 1089 1162 1186 1044 1275 1478 1132 970 945 1205 1547 1684 1731 1792 1607 1676 1310 347 58 151 703 758 1338 1517 1567 1277 1543 1612 1436 1473 1207 846 888 926 909
0 0 0 0 0 10 6 84 186 336 341 580 691 786 943 1180 1226 1343 1425 1622 1328 949 915 973 1267 1255 1413 1436 1509 1412 1036 488 122 71 233 431 853 961 1270 874 904 1094 954 1444 1225 993 752 544 408
0 0 0 0 0 6 21 28 49 133 524 529 422 573 915 1154 1221 1322 1454 1588 1518 1255 1163 1153 1091 1207 1244 1204 1248 1246 1441 1098 636 105 167 142 296 258 458 766 616 876 1153 932 1088 465 555 643 323
0 0 0 0 0 1 45 28 62 198 447 601 581 624 829 1082 1348 1255 1330 1550 1709 1669 1656 1609 1279 1296 1290 1359 1485 1417 1107 940 831 473 91 44 90 115 127 178 318 602 722 1027 1031 774 445 265 265
0 0 2 0 0 4 63 19 34 178 389 471 656 750 834 1000 1276 1350 1458 1609 1829 1884 1721 1897 1678 1682 1688 1684 1762 1589 1416 1079 806 398 176 35 54 91 96 115 171 535 687 690 691 573 213 188 199
0 0 0 0 23 32 17 46 15 262 434 473 664 765 726 816 1228 1383 1491 1521 1742 1769 1739 1723 1842 2012 1904 1876 1743 1558 1077 676 448 331 307 156 148 43 54 159 225 340 317 275 252 187 126 131 121
0 0 0 0 3 25 21 0 76 174 387 526 747 804 758 639 757 1126 1321 1426 1445 1569 1767 1796 1798 2055 1944 1749 1483 1166 637 356 346 396 371 310 237 221 186 136 210 259 217 215 194 163 192 148 112
0 0 0 0 0 0 0 0 17 109 287 455 715 799 892 677 845 1150 1125 1223 1295 1332 1519 1526 1639 2025 1656 1366 1270 897 603 334 268 226 280 333 344 311 177 154 116 70 24 62 99 191 171 218 261
0 0 0 0 0 0 0 0 3 44 23 157 499 654 729 770 814 1082 1157 1262 1263 1303 1500 1654 1329 1489 1354 1247 1328 1075 363 286 275 260 237 234 232 213 295 332 312 258 162 164 331 246 334 251 200
0 0 0 0 0 0 0 0 0 0 0 37 167 557 749 834 797 1000 1200 1275 1356 1622 924 497 218 420 679 928 1086 649 167 67 92 103 186 241 321 290 197 277 278 210 197 133 629 471 384 179 41
0 0 0 0 0 0 0 0 0 0 0 0 2 105 516 732 839 1034 1192 1437 1588 923 678 216 6 0 159 170 344 942 635 224 108 176 578 763 581 386 444 508 462 463 666 526 444 483 416 355 250
0 0 0 0 0 0 0 0 0 0 0 0 0 1 24 274 586 799 1113 1458 1062 1011 645 458 10 0 0 2 102 638 940 404 150 492 995 1283 1159 1094 964 861 472 532 366 319 335 335 250 270 217
0 0 0 0 0 0 0 0 0 0 0 0 11 28 24 136 317 597 1015 1639 1160 871 359 235 0 0 0 10 133 514 981 672 347 504 988 1069 972 938 741 476 306 224 171 147 160 261 267 218 193
0 0 0 0 0 0 0 0 0 0 0 7 96 232 24 297 423 804 1313 1594 1240 331 82 14 0 182 175 16 0 243 819 379 562 537 365 442 270 338 593 263 190 136 118 42 121 115 155 182 159
0 0 0 0 0 0 0 0 0 0 72 251 294 96 32 318 790 1436 1959 1983 1178 802 281 395 535 423 4 61 40 223 631 351 1112 636 337 103 190 150 218 113 121 96 52 4 7 44 45 137 165
0 0 0 0 0 0 0 0 0 0 27 278 498 405 278 537 893 1333 1596 1818 2233 1241 432 332 693 347 155 384 1152 1229 1233 1031 1041 676 292 133 238 71 28 81 56 40 8 19 119 118 65 160 121
0 0 0 0 0 0 0 0 0 0 0 221 623 716 727 749 876 1064 1086 547 896 1369 2590 1167 1112 572 538 1287 1384 1127 914 628 551 379 215 167 235 260 212 139 39 15 8 4 42 44 21 82 84
0 0 0 0 0 0 0 0 0 0 21 433 773 1065 1190 1171 1150 892 710 490 505 1230 1964 1670 1476 1303 1140 1018 817 564 187 68 402 298 367 401 413 400 201 52 2 0 0 0 0 0 4 55 107
0 0 0 0 0 0 0 0 0 0 59 599 889 1253 1037 408 493 712 410 325 308 903 1136 1485 1390 1099 1024 846 627 200 56 214 289 348 375 396 319 280 79 17 3 0 0 0 0 0 0 19 29